Date,TemperatureHighF,TemperatureAvgF,TemperatureLowF,DewpointHighF,DewpointAvgF,DewpointLowF,HumidityHigh,HumidityAvg,HumidityLow,PressureMaxIn,PressureMinIn,WindSpeedMaxMPH,WindSpeedAvgMPH,GustSpeedMaxMPH,PrecipitationSumIn
2013-2-1,63.9,54.4,43.2,35.1,19.2,13.4,49,26,16,29.62,29.47,15,2,15,0.00
2013-2-2,68.0,57.3,48.2,47.3,35.7,30.5,68,46,26,29.47,29.32,11,2,11,0.00
2013-2-3,68.2,60.3,57.4,50.0,45.7,37.0,74,61,33,29.44,29.35,27,6,30,0.00
2013-2-4,70.3,61.5,56.3,50.0,42.4,31.9,74,52,26,29.53,29.47,13,2,13,0.00
2013-2-5,67.5,58.6,52.2,47.4,39.0,30.6,73,50,27,29.56,29.38,10,2,10,0.00
2013-2-6,66.0,56.8,48.6,47.6,36.9,31.3,70,49,31,29.38,29.20,6,1,6,0.00
2013-2-7,63.5,56.9,52.3,43.7,37.8,31.5,69,49,35,29.29,29.06,24,4,24,0.13
2013-2-8,61.9,54.5,48.2,36.1,29.4,25.4,53,39,26,29.32,29.09,9,2,9,0.00
2013-2-9,64.6,53.0,43.7,41.6,28.4,22.1,66,41,21,29.44,29.29,10,1,10,0.00
2013-2-10,63.7,54.5,48.0,35.8,25.9,20.4,46,34,21,29.44,29.35,8,1,8,0.00
2013-2-11,61.2,52.4,45.9,31.0,22.3,15.3,52,32,19,29.62,29.32,7,2,7,0.00
2013-2-12,46.0,45.5,45.1,21.7,21.4,21.1,38,38,38,29.62,29.59,2,0,2,0.00
2013-2-13,58.6,53.4,46.4,45.7,38.5,29.2,81,59,36,29.53,29.44,22,4,22,1.24
2013-2-14,54.5,50.1,47.8,42.2,38.8,33.2,76,66,45,29.47,29.23,11,2,11,0.37
2013-2-15,56.3,49.2,45.9,41.7,35.9,30.5,74,61,41,29.56,29.23,12,2,12,0.25
2013-2-16,61.9,50.0,45.3,39.2,35.2,28.7,67,58,32,29.62,29.53,8,1,10,0.08
2013-2-17,48.6,47.2,44.4,41.0,37.8,29.3,76,70,49,29.88,29.47,17,3,17,0.42
2013-2-18,58.8,48.6,40.5,34.2,27.6,21.1,66,46,25,29.91,29.82,7,1,7,0.00
2013-2-19,59.0,51.3,45.0,47.4,34.6,27.9,71,53,39,29.85,29.56,13,2,13,0.13
2013-2-20,64.4,54.0,43.5,37.6,25.5,16.4,64,36,18,29.85,29.65,7,2,7,0.00
2013-2-21,59.4,52.6,46.9,43.8,32.2,27.8,68,46,32,29.85,29.53,15,2,15,0.04
2013-2-22,60.1,53.6,48.6,52.6,43.2,36.3,86,69,48,29.56,29.38,17,3,17,4.53
2013-2-23,68.4,57.6,48.0,53.6,39.4,27.3,84,56,26,29.82,29.56,8,1,8,0.00
2013-2-24,70.9,59.8,49.1,54.2,36.9,27.6,79,47,22,29.91,29.79,12,2,12,0.00
2013-2-25,71.8,63.1,54.5,46.2,36.4,30.7,62,39,23,29.88,29.76,18,3,18,0.00
2013-2-26,70.7,61.3,51.1,49.5,36.2,24.8,72,42,20,29.85,29.76,12,2,12,0.00
2013-2-27,66.6,56.3,48.7,36.5,26.6,18.5,49,34,18,29.85,29.74,6,2,6,0.00
2013-2-28,57.9,51.7,47.8,31.8,27.3,23.7,52,39,28,30.00,29.85,12,4,12,0.00